Wind_Speed
13 12 11 10 10 9 9 9 8 8 9 9 9 9 9 8 9 9 9 9 8 7 7 6 6 5 5 5 5 5 5 5 5 5 5 4 4 5 4 4 4 4
14 13 12 11 10 10 9 8 8 8 9 9 9 9 9 9 9 9 9 8 8 7 7 6 5 5 5 4 4 4 4 4 4 4 4 4 4 3 2 2 3 3
15 14 14 13 12 11 10 9 9 9 9 10 10 10 10 9 9 8 8 8 8 7 7 7 6 6 5 5 4 3 4 4 3 3 3 3 3 2 2 3 3 3
17 16 15 14 13 12 11 10 9 9 9 10 10 10 10 10 10 9 8 8 8 7 7 7 7 7 6 5 4 4 3 3 3 3 3 2 2 2 3 4 4 4
19 18 17 16 15 14 13 11 10 9 9 10 10 11 11 10 10 10 9 9 8 8 7 7 6 5 5 4 4 4 4 4 4 4 4 4 4 4 4 4 5 5
21 20 19 18 17 17 15 13 11 10 10 10 10 10 11 11 10 10 9 9 8 8 6 5 4 4 4 4 4 5 5 5 6 6 6 6 6 6 6 5 5 5
22 22 21 20 19 18 16 15 13 12 11 10 10 10 10 11 11 10 9 9 9 8 7 6 6 5 5 5 5 6 6 7 8 8 7 7 7 8 7 6 5 5
23 22 21 20 19 18 17 16 15 13 12 11 10 10 10 11 11 10 10 10 10 10 9 8 8 7 7 7 6 6 7 8 8 8 7 7 6 6 6 6 6 5
24 23 22 21 20 19 18 17 16 15 13 12 11 10 11 11 10 11 11 12 12 11 11 10 10 9 9 8 7 7 8 9 9 8 7 6 5 5 5 6 7 7
24 24 23 22 22 21 20 19 18 17 16 14 13 12 11 11 11 12 12 12 12 11 11 11 11 11 10 9 9 9 9 10 9 9 8 7 5 5 6 7 8 8
25 25 25 24 24 22 22 21 19 18 17 16 14 13 12 12 12 12 12 12 12 12 11 11 11 12 12 10 9 10 11 11 10 10 9 8 7 7 7 8 9 8
27 25 25 26 26 25 23 22 21 19 18 17 16 15 14 13 13 13 14 15 14 13 12 12 13 13 12 11 11 12 12 12 12 12 10 9 10 11 10 9 10 10
28 27 26 26 27 28 26 24 23 21 20 19 18 17 16 15 15 16 16 16 16 16 15 15 15 14 14 15 15 14 14 14 14 14 12 11 12 13 13 12 12 12
28 29 28 28 28 28 28 27 25 24 23 22 21 20 19 18 18 18 18 18 18 18 17 17 17 16 16 17 17 16 17 17 17 16 14 13 14 15 16 15 14 14
30 30 31 30 29 28 28 28 27 26 24 23 22 22 21 21 21 20 19 20 20 19 19 19 19 19 19 19 18 18 19 20 20 19 17 16 17 18 19 18 17 16
32 31 32 32 30 29 28 28 28 27 26 25 24 24 23 22 22 21 21 21 21 20 20 20 20 21 21 20 20 20 21 22 22 22 20 19 19 20 21 21 20 19
34 33 34 33 31 30 30 29 30 29 27 26 26 26 25 24 23 22 21 21 21 21 21 21 22 22 22 22 22 22 22 24 24 24 23 22 22 23 23 23 22 22
36 36 36 34 33 32 31 30 30 30 29 28 28 27 26 25 24 23 23 22 22 22 22 23 23 24 24 24 24 24 24 24 25 26 26 25 25 25 26 26 26 26
39 38 37 37 35 34 33 31 30 30 29 27 28 28 28 27 25 25 25 24 24 25 25 25 25 25 25 26 26 26 26 25 26 27 27 28 28 29 30 30 29 28
41 40 38 38 36 35 35 33 31 31 30 28 28 29 29 28 27 27 26 26 26 26 26 26 26 27 27 28 28 28 28 28 28 29 30 30 31 32 33 32 30 29
42 40 39 38 37 37 38 34 31 32 31 29 30 31 30 30 29 29 28 27 26 26 27 27 28 28 29 29 30 30 30 31 31 32 32 33 34 35 34 32 31 32
44 41 40 40 40 39 38 34 32 33 33 32 31 31 30 30 30 31 30 28 28 28 28 29 29 29 29 30 30 31 31 32 32 33 34 36 37 37 36 33 33 34
49 45 42 42 41 39 36 33 33 34 35 33 32 32 31 32 32 32 32 30 29 30 30 29 30 30 30 30 30 30 30 30 31 32 33 36 37 37 37 36 35 36
44 45 44 44 42 40 37 35 33 34 35 34 33 33 34 35 35 34 32 30 29 30 31 31 31 31 30 31 31 30 30 31 32 33 35 37 38 37 37 38 38 38
35 40 43 45 46 45 44 41 39 38 38 37 37 36 36 36 36 35 34 31 30 31 32 32 32 31 31 32 32 32 32 33 34 36 37 39 39 38 39 40 39 39
29 33 37 41 45 47 46 44 43 42 42 41 40 38 38 37 37 36 36 35 33 32 31 32 32 32 32 32 32 32 32 33 35 37 39 40 39 39 40 40 39 40
Wind_Direction
182 182 179 176 175 174 173 171 172 176 182 187 190 192 196 202 207 210 213 213 209 207 206 202 195 191 191 189 190 189 184 188 195 197 202 206 216 232 244 253 259 262
187 186 184 183 183 182 180 177 178 180 181 184 186 188 190 194 198 201 205 203 197 195 192 189 186 186 189 188 186 186 177 180 189 185 182 185 193 215 242 252 252 258
193 192 190 189 188 187 187 185 184 184 184 186 186 184 185 186 185 189 191 184 179 180 176 170 168 168 172 175 175 173 167 171 178 172 169 169 174 201 245 267 268 262
198 198 195 194 193 194 196 194 191 190 189 190 189 186 184 182 178 179 178 171 169 170 168 163 161 161 165 170 176 182 183 185 189 194 199 197 198 220 246 263 269 263
202 203 200 198 198 198 201 200 198 197 194 196 196 191 188 185 181 179 176 172 171 171 171 168 166 170 178 186 198 211 221 224 226 228 228 225 224 231 240 252 262 264
207 207 206 205 203 203 204 204 204 202 200 202 202 198 195 192 191 189 185 183 184 186 187 189 194 208 217 222 227 232 234 233 234 235 232 228 226 225 228 237 250 258
214 212 210 209 209 209 208 208 209 208 205 206 207 206 204 200 200 201 200 199 201 205 210 216 223 233 240 243 242 243 242 237 233 233 231 229 228 225 223 226 235 249
221 219 217 215 215 215 214 213 214 215 213 211 211 211 211 209 207 207 209 211 213 215 218 222 229 236 242 250 253 253 251 249 246 245 243 243 243 240 238 239 238 237
228 227 225 222 221 220 220 220 220 220 220 219 217 216 217 218 216 214 217 219 219 221 224 228 234 242 247 253 257 257 256 256 255 254 253 250 245 240 242 249 249 240
231 233 232 230 228 226 224 225 225 225 225 225 224 222 223 224 224 226 229 229 229 229 232 237 244 249 251 253 258 263 267 267 264 261 258 252 241 234 234 243 250 250
230 234 237 237 236 234 232 231 231 231 231 231 230 230 230 228 230 234 239 243 243 237 237 247 255 256 257 260 265 269 271 271 269 266 261 253 247 248 250 250 253 255
227 229 236 241 242 240 238 237 237 238 238 238 237 237 237 235 236 238 240 244 246 243 241 247 254 259 265 266 263 261 263 266 268 265 261 255 250 253 258 261 261 260
228 227 229 236 240 241 239 238 237 237 238 239 239 239 239 239 239 239 239 241 244 243 241 245 252 258 261 259 255 256 258 262 263 262 260 259 255 255 260 263 266 268
231 231 229 230 234 238 239 238 235 234 234 236 237 239 239 238 238 238 240 241 243 242 241 246 254 256 254 254 255 256 258 260 260 259 260 261 259 260 263 264 265 269
234 234 234 232 231 234 238 239 237 235 234 236 237 239 238 238 238 238 239 240 242 242 242 246 252 255 255 255 256 258 259 261 261 261 261 262 260 262 266 268 268 269
233 234 237 236 233 232 235 238 239 237 236 236 236 238 237 236 237 238 240 242 243 244 246 248 252 256 258 257 257 259 261 263 263 264 264 263 261 262 266 269 270 269
232 233 235 236 236 234 233 235 238 238 236 235 235 236 237 238 238 240 242 244 246 248 250 252 253 255 258 259 260 260 260 262 265 267 268 267 265 265 268 270 271 269
236 235 234 232 232 234 233 234 239 240 238 236 236 236 235 236 237 239 241 241 244 249 252 253 255 257 259 260 261 261 260 261 263 266 267 268 267 267 268 270 269 268
236 237 237 232 231 234 235 234 236 239 236 235 239 240 239 237 236 238 239 240 244 249 252 254 257 259 262 263 263 262 262 262 263 264 266 266 266 266 266 268 268 269
235 237 238 236 234 236 236 233 231 234 234 233 237 240 241 241 239 240 241 242 245 249 251 254 256 259 262 264 264 264 264 264 264 265 266 267 266 265 266 267 269 271
238 238 237 237 235 235 236 232 229 231 234 235 234 235 237 240 242 244 244 244 246 248 251 253 256 258 259 261 262 263 264 265 266 267 268 269 268 268 268 269 269 269
237 236 235 234 234 234 234 232 228 229 233 234 233 233 235 239 242 245 247 245 246 249 253 256 258 259 259 260 260 261 263 264 266 267 267 269 269 270 271 271 270 268
236 234 232 232 234 234 232 228 227 228 230 231 232 234 236 238 242 247 250 250 250 254 257 259 259 259 259 260 261 261 262 263 265 266 268 269 270 272 273 274 272 270
235 236 233 231 232 233 232 230 229 230 231 232 235 239 241 244 247 251 253 253 254 257 258 258 257 258 259 261 262 263 263 265 267 268 269 268 268 270 272 272 271 268
238 237 233 230 230 231 234 237 237 236 237 239 242 245 246 248 250 253 254 254 255 257 258 258 258 259 261 263 264 264 265 267 269 268 266 265 265 266 266 266 265 263
238 232 229 231 234 235 237 239 240 240 242 245 247 248 248 248 250 253 255 256 256 258 261 263 263 264 265 266 267 268 269 270 269 267 264 262 262 261 258 258 259 260
Height
5900 5900 5901 5901 5902 5902 5902 5903 5903 5904 5905 5906 5907 5907 5908 5909 5909 5910 5910 5911 5911 5912 5912 5912 5913 5913 5913 5913 5914 5914 5914 5914 5915 5915 5915 5915 5915 5915 5915 5915 5915 5915
5899 5899 5900 5900 5901 5901 5902 5902 5903 5904 5905 5905 5906 5907 5907 5908 5909 5910 5910 5911 5911 5911 5912 5912 5912 5913 5913 5913 5914 5914 5914 5914 5915 5915 5915 5915 5915 5915 5915 5915 5916 5916
5898 5898 5899 5899 5900 5900 5901 5902 5903 5904 5904 5905 5905 5906 5907 5908 5909 5909 5910 5910 5911 5911 5911 5912 5912 5912 5913 5913 5913 5914 5914 5914 5915 5915 5915 5915 5915 5915 5915 5915 5916 5916
5897 5897 5898 5898 5899 5900 5901 5901 5902 5903 5904 5904 5905 5906 5907 5907 5908 5909 5909 5910 5910 5911 5911 5912 5912 5912 5913 5913 5913 5914 5914 5914 5915 5915 5915 5915 5915 5915 5915 5915 5915 5916
5895 5896 5897 5898 5898 5899 5900 5901 5901 5902 5903 5904 5904 5905 5906 5907 5907 5908 5909 5909 5910 5910 5911 5911 5912 5912 5913 5913 5913 5913 5914 5914 5914 5914 5915 5915 5915 5915 5915 5915 5915 5915
5895 5895 5896 5897 5897 5898 5899 5900 5900 5901 5902 5903 5904 5904 5905 5906 5907 5907 5908 5909 5909 5910 5911 5911 5911 5912 5912 5913 5913 5913 5913 5913 5913 5913 5913 5914 5914 5914 5914 5914 5914 5914
5894 5894 5895 5896 5897 5897 5898 5898 5899 5900 5901 5902 5903 5903 5904 5905 5906 5906 5907 5908 5908 5909 5910 5910 5910 5911 5911 5912 5912 5912 5913 5913 5912 5912 5912 5912 5912 5913 5913 5913 5913 5913
5893 5893 5894 5895 5896 5897 5897 5897 5898 5899 5899 5900 5901 5902 5903 5903 5904 5905 5906 5906 5907 5907 5908 5909 5909 5909 5910 5910 5911 5911 5912 5912 5912 5911 5911 5912 5912 5913 5913 5913 5913 5913
5891 5892 5893 5894 5895 5895 5896 5896 5897 5897 5898 5899 5899 5900 5901 5901 5902 5903 5903 5904 5905 5906 5906 5907 5907 5908 5909 5909 5909 5910 5910 5910 5911 5911 5911 5912 5912 5912 5913 5913 5913 5912
5889 5891 5892 5892 5893 5894 5894 5895 5895 5896 5897 5897 5898 5898 5899 5900 5900 5901 5901 5902 5903 5904 5905 5905 5906 5907 5907 5907 5908 5908 5909 5909 5910 5910 5911 5912 5912 5912 5912 5912 5912 5911
5886 5888 5890 5890 5891 5892 5893 5893 5894 5895 5896 5896 5897 5897 5898 5899 5899 5899 5900 5901 5901 5902 5903 5904 5905 5905 5906 5907 5907 5907 5908 5908 5908 5909 5910 5911 5911 5911 5911 5911 5911 5911
5882 5884 5887 5888 5889 5890 5891 5892 5893 5894 5894 5895 5896 5896 5897 5897 5898 5899 5899 5899 5900 5900 5901 5902 5903 5903 5905 5906 5906 5906 5906 5906 5907 5907 5908 5909 5910 5910 5910 5910 5910 5910
5880 5881 5882 5884 5886 5887 5888 5889 5890 5891 5892 5893 5894 5895 5895 5896 5896 5896 5897 5897 5898 5898 5899 5900 5901 5902 5904 5904 5904 5904 5904 5904 5905 5905 5906 5907 5907 5907 5907 5908 5908 5908
5878 5879 5879 5880 5882 5884 5885 5887 5887 5888 5889 5890 5892 5892 5893 5893 5893 5894 5894 5895 5896 5896 5897 5898 5899 5900 5902 5902 5902 5902 5902 5902 5903 5903 5904 5904 5904 5903 5904 5904 5905 5905
5874 5875 5877 5878 5878 5880 5883 5884 5885 5886 5887 5888 5889 5890 5891 5891 5891 5892 5893 5893 5894 5894 5895 5896 5897 5898 5900 5901 5900 5900 5900 5900 5900 5901 5902 5902 5901 5901 5901 5901 5902 5902
5870 5872 5874 5875 5877 5878 5880 5881 5883 5883 5884 5885 5886 5887 5888 5888 5889 5890 5891 5891 5892 5893 5894 5894 5895 5896 5897 5898 5899 5899 5898 5898 5898 5899 5899 5900 5900 5899 5899 5899 5899 5899
5866 5868 5870 5872 5874 5875 5876 5878 5879 5880 5881 5881 5882 5883 5884 5886 5886 5887 5888 5889 5890 5891 5892 5892 5893 5893 5894 5895 5896 5896 5897 5896 5896 5896 5896 5897 5897 5897 5897 5896 5896 5896
5863 5864 5866 5868 5870 5872 5873 5874 5876 5877 5878 5879 5879 5880 5881 5883 5884 5884 5885 5886 5887 5888 5889 5890 5890 5890 5891 5892 5893 5893 5894 5893 5893 5893 5893 5894 5894 5893 5893 5893 5892 5891
5859 5860 5862 5864 5866 5868 5869 5870 5872 5873 5875 5876 5877 5878 5879 5880 5881 5881 5882 5883 5884 5885 5886 5887 5887 5887 5888 5889 5890 5890 5890 5890 5890 5890 5890 5890 5890 5890 5889 5888 5889 5890
5856 5857 5858 5860 5863 5864 5864 5865 5867 5869 5870 5873 5874 5874 5875 5877 5878 5879 5879 5880 5881 5882 5883 5883 5883 5884 5885 5885 5886 5886 5887 5887 5887 5887 5887 5887 5886 5885 5885 5886 5888 5889
5853 5854 5855 5857 5860 5860 5859 5861 5863 5865 5866 5868 5869 5869 5871 5873 5875 5876 5877 5877 5878 5878 5878 5878 5879 5880 5881 5881 5882 5882 5882 5883 5883 5884 5884 5883 5882 5881 5882 5885 5886 5885
5849 5851 5852 5854 5855 5856 5857 5858 5860 5861 5863 5865 5866 5867 5868 5869 5871 5873 5873 5874 5875 5875 5875 5875 5876 5877 5877 5877 5877 5877 5878 5878 5879 5879 5879 5878 5877 5877 5879 5881 5881 5881
5843 5846 5849 5849 5851 5852 5854 5855 5856 5858 5859 5861 5862 5864 5865 5867 5868 5869 5870 5871 5873 5873 5873 5873 5873 5873 5873 5873 5873 5873 5874 5875 5875 5875 5875 5874 5873 5873 5875 5876 5877 5876
5840 5843 5845 5846 5847 5848 5849 5850 5852 5854 5855 5857 5859 5861 5862 5863 5865 5866 5867 5869 5870 5870 5870 5870 5869 5869 5869 5869 5869 5870 5870 5871 5871 5871 5870 5869 5869 5870 5871 5871 5871 5870
5837 5839 5841 5842 5843 5844 5845 5846 5848 5851 5853 5855 5856 5857 5858 5859 5860 5861 5863 5864 5866 5866 5865 5865 5866 5865 5865 5865 5865 5866 5866 5867 5866 5866 5865 5864 5864 5865 5865 5865 5864 5863
5833 5835 5837 5839 5840 5841 5843 5844 5846 5847 5849 5850 5852 5853 5854 5855 5856 5857 5858 5859 5861 5861 5861 5862 5862 5861 5861 5861 5861 5862 5862 5862 5861 5860 5859 5859 5859 5859 5859 5859 5859 5858